TimeEST,TemperatureF,Dew PointF,Humidity,Sea Level PressureIn,VisibilityMPH,Wind Direction,Wind SpeedMPH,Gust SpeedMPH,PrecipitationIn,Events,Conditions,WindDirDegrees,DateUTC
12:53 AM,21.9,19.9,92,30.24,7.0,Calm,Calm,-,N/A,,Clear,0,2013-01-03 05:53:00
1:53 AM,19.9,18.0,92,30.24,8.0,Calm,Calm,-,N/A,,Clear,0,2013-01-03 06:53:00
2:53 AM,19.9,17.1,89,30.25,8.0,Calm,Calm,-,N/A,,Clear,0,2013-01-03 07:53:00
3:53 AM,19.0,17.1,92,30.24,8.0,Calm,Calm,-,N/A,,Clear,0,2013-01-03 08:53:00
4:53 AM,19.0,17.1,92,30.25,7.0,Calm,Calm,-,N/A,,Clear,0,2013-01-03 09:53:00
5:53 AM,19.0,16.0,88,30.26,9.0,Calm,Calm,-,N/A,,Clear,0,2013-01-03 10:53:00
6:53 AM,19.0,16.0,88,30.28,9.0,Calm,Calm,-,N/A,,Clear,0,2013-01-03 11:53:00
7:53 AM,18.0,15.1,88,30.29,9.0,Calm,Calm,-,N/A,,Clear,0,2013-01-03 12:53:00
8:53 AM,19.9,17.1,89,30.30,5.0,Calm,Calm,-,N/A,,Clear,0,2013-01-03 13:53:00
9:53 AM,27.0,21.9,81,30.30,7.0,SW,4.6,-,N/A,,Clear,230,2013-01-03 14:53:00
10:53 AM,30.0,19.9,66,30.30,10.0,SW,6.9,-,N/A,,Clear,230,2013-01-03 15:53:00
11:53 AM,33.1,19.9,59,30.29,10.0,WSW,6.9,-,N/A,,Clear,250,2013-01-03 16:53:00
12:53 PM,35.1,17.1,48,30.27,10.0,SW,10.4,-,N/A,,Clear,230,2013-01-03 17:53:00
1:53 PM,37.9,18.0,45,30.26,10.0,West,9.2,-,N/A,,Clear,270,2013-01-03 18:53:00
2:53 PM,39.0,19.0,45,30.27,9.0,WSW,9.2,-,N/A,,Clear,250,2013-01-03 19:53:00
3:53 PM,37.9,19.9,48,30.30,10.0,WNW,10.4,17.3,N/A,,Partly Cloudy,300,2013-01-03 20:53:00
4:53 PM,35.1,21.9,59,30.31,10.0,West,5.8,-,N/A,,Clear,280,2013-01-03 21:53:00
5:53 PM,33.1,21.9,64,30.32,10.0,Calm,Calm,-,N/A,,Clear,0,2013-01-03 22:53:00
6:53 PM,28.0,21.9,78,30.35,10.0,Calm,Calm,-,N/A,,Clear,0,2013-01-03 23:53:00
7:53 PM,28.0,21.9,78,30.35,10.0,Calm,Calm,-,N/A,,Overcast,0,2013-01-04 00:53:00
8:53 PM,26.1,21.0,81,30.36,10.0,Calm,Calm,-,N/A,,Clear,0,2013-01-04 01:53:00
9:53 PM,28.9,19.9,69,30.36,10.0,West,4.6,-,N/A,,Clear,280,2013-01-04 02:53:00
10:53 PM,28.9,19.9,69,30.37,10.0,WNW,5.8,-,N/A,,Clear,290,2013-01-04 03:53:00
11:53 PM,28.0,21.0,75,30.38,10.0,West,4.6,-,N/A,,Scattered Clouds,260,2013-01-04 04:53:00